Deptford, New Jersey, United States
Lat: 39.83N, Lon: 75.13W
Wx Zone: NJZ017
Local Info
Past Weather Observations for Friday, April 11, 2014

NOTE: This archive is for the closest National Weather Service station to Deptford. Information may differ from the station used for current weather conditions.

Time Weather Temperature Dewpoint Humidity Pressure Winds Precip Visibility
23:54
Mostly Cloudy
55°F / 13°C 34°F / 1°C 44% 30.04 in
(1017 mb)
SSE 9.2 mph
(SSE 15 kph)
- 10SM
22:54
Partly Cloudy
55°F / 13°C 32°F / 0°C 41% 30.06 in
(1018 mb)
SSE 12.7 mph
(SSE 20 kph)
- 10SM
21:54
Partly Cloudy
57°F / 14°C 30°F / -1°C 36% 30.06 in
(1018 mb)
SSE 17.3 mph
(SSE 28 kph)
- 10SM
20:54
Partly Cloudy
57°F / 14°C 34°F / 1°C 41% 30.06 in
(1018 mb)
S 13.8 mph
(S 22 kph)
- 10SM
19:54
Partly Cloudy
57°F / 14°C 34°F / 1°C 41% 30.09 in
(1019 mb)
S 10.4 mph
(S 17 kph)
- 10SM
18:54
Partly Cloudy
59°F / 15°C 30°F / -1°C 34% 30.06 in
(1018 mb)
SSE 9.2 mph
(SSE 15 kph)
- 10SM
17:54
Partly Cloudy
63°F / 17°C 30°F / -1°C 30% 30.09 in
(1019 mb)
S 13.8 mph
(S 22 kph)
- 10SM
16:54
Mostly Cloudy
64°F / 18°C 32°F / 0°C 30% 30.09 in
(1019 mb)
S 15 mph
(S 24 kph)
- 10SM
15:54
Partly Cloudy
66°F / 19°C 30°F / -1°C 26% 30.09 in
(1019 mb)
S 15 mph
(S 24 kph)
- 10SM
14:54
Partly Cloudy
68°F / 20°C 30°F / -1°C 24% 30.12 in
(1020 mb)
SW 19.6 mph
(SW 32 kph)
- 10SM
13:54
Clear
66°F / 19°C 28°F / -2°C 24% 30.12 in
(1020 mb)
SW 15 mph
(SW 24 kph)
- 10SM
12:54
Clear
64°F / 18°C 27°F / -3°C 24% 30.15 in
(1021 mb)
SW 15 mph
(SW 24 kph)
- 10SM
11:54
Clear
63°F / 17°C 28°F / -2°C 27% 30.18 in
(1022 mb)
S 11.5 mph
(S 19 kph)
- 10SM
10:54
Clear
61°F / 16°C 27°F / -3°C 27% 30.21 in
(1023 mb)
SSE 11.5 mph
(SSE 19 kph)
- 10SM
09:54
Clear
55°F / 13°C 28°F / -2°C 36% 30.24 in
(1024 mb)
SW 12.7 mph
(SW 20 kph)
- 10SM
08:54
Clear
54°F / 12°C 28°F / -2°C 38% 30.24 in
(1024 mb)
S 11.5 mph
(S 19 kph)
- 10SM
07:54
Clear
50°F / 10°C 28°F / -2°C 43% 30.24 in
(1024 mb)
SW 9.2 mph
(SW 15 kph)
- 10SM
06:54
Clear
45°F / 7°C 27°F / -3°C 49% 30.21 in
(1023 mb)
Calm - 10SM
05:54
Clear
39°F / 4°C 27°F / -3°C 61% 30.18 in
(1022 mb)
Calm - 10SM
04:54
Clear
43°F / 6°C 28°F / -2°C 57% 30.15 in
(1021 mb)
Calm - 10SM
03:54
Clear
43°F / 6°C 28°F / -2°C 57% 30.15 in
(1021 mb)
SE 5.8 mph
(SE 9 kph)
- 10SM
02:54
Clear
45°F / 7°C 30°F / -1°C 57% 30.12 in
(1020 mb)
Calm - 10SM
01:54
Clear
46°F / 8°C 27°F / -3°C 46% 30.12 in
(1020 mb)
ENE 5.8 mph
(ENE 9 kph)
- 10SM
00:54
Clear
48°F / 9°C 25°F / -4°C 40% 30.09 in
(1019 mb)
NE 3.5 mph
(NE 6 kph)
- 10SM
Time Weather Temperature Dewpoint Humidity Pressure Winds Precip Visibility


Weather for websites

WeatherForYou.com, LLC is not responsible for any damages or problems caused by this service. Current weather conditions are obtained from the closest station including government and personal stations which may have varying degrees of accuracy. Weather forecasts are derived from the NOAA NDFD. Like all things, this site belongs to Jesus Christ... He just trusts me to maintain it. If you have any questions or comments email webmaster@weatherforyou.com

Copyright © 2014, WeatherForYou.com LLC. All rights reserved.